Regional Weather Roundup
Issued by NWS

Home | Current Version | Previous Version | Text Only | Print | Product List | Glossary Off
Versions: 1 2 3 4 5 6 7 8 9 10 11 12 13 14 15 16 17 18 19 20 21 22 23 24 25 26 27 28 29 30 31 32 33 34 35 36 37 38 39 40 41 42 43 44 45 46 47 48 49 50

000
ASUS43 KMPX 180101
RWRMN
WEATHER ROUNDUP FOR MINNESOTA
NATIONAL WEATHER SERVICE TWIN CITIES/CHANHASSEN MN
700 PM CST SUN DEC 17 2017


NOTE: "FAIR" INDICATES FEW OR NO CLOUDS BELOW 12,000 FEET WITH NO
SIGNIFICANT WEATHER AND/OR OBSTRUCTIONS TO VISIBILITY. N/A MEANS
CURRENT SKY AND/OR WEATHER CONDITIONS ARE NOT AVAILABLE.

MNZ060>063-068>070-180200-
   Twin Cities Metro

CITY           SKY/WX    TMP DP  RH WIND       PRES   REMARKS
TWIN CITIES    CLOUDY    27  24  89 SE5       29.98S FOG     WCI  22
ST PAUL        CLOUDY    27  24  89 S6        30.00R FOG     WCI  20
CRYSTAL        CLOUDY    25  20  81 CALM      29.97S
BLAINE         CLOUDY    27  27 100 CALM      29.97S FOG
LAKEVILLE      CLOUDY    25  25 100 CALM      29.98R FOG
EDEN PRAIRIE   CLOUDY    27  23  85 S3        29.97S FOG
SOUTH ST PAUL  PTCLDY    27  25  92 S5        29.99R FOG     WCI  22
LAKE ELMO      CLOUDY    28  27  93 S6        29.98F WCI  22
$$
MNZ001>005-007-008-013>017-022>024-027-028-180200-
   Northwest Minnesota

CITY           SKY/WX    TMP DP  RH WIND       PRES   REMARKS
BEMIDJI        CLEAR     22  22  96 S5        29.86F FOG     WCI  16
HALLOCK        CLEAR     18  16  93 S13       29.78F WCI   4
ROSEAU         CLEAR     19  16  86 S13       29.80F WCI   7
WARROAD        CLEAR     18  14  86 S6        29.80F WCI   9
THIEF RVR FALL FOG       23  21  93 S12       29.84F VSB 1/2 WCI  12
CROOKSTON      FOG       27  25  93 S13       29.85F VSB 1/2 WCI  16
FOSSTON        FOG       25  23  93 S7        29.86F VSB 1/4 WCI  17
DETROIT LAKES  CLOUDY    28  28 100 S10       29.88F FOG     WCI  19
MOORHEAD       CLOUDY    28  28 100 S13       29.89S FOG     WCI  18
PARK RAPIDS    CLOUDY    27  24  89 SW8       29.88F WCI  19
MAHNOMEN       FOG       26  25  97 S13       29.86F VSB 3/4 WCI  14
$$
MNZ006-009>011-018-025>026-180200-
   North Central Minnesota

CITY           SKY/WX    TMP DP  RH WIND       PRES   REMARKS
BAUDETTE       CLEAR     22  18  85 S8        29.81F WCI  12
FLAG ISLAND    CLEAR     12   9  85 S6        29.78F WCI   3
INTL FALLS     CLOUDY    25  22  88 SW6       29.84F FOG     WCI  18
WASKISH        CLEAR     18  16  93 CALM      29.85F
BIG FORK       CLOUDY    27  25  93 S7        29.88S WCI  19
LONGVILLE      CLOUDY    27  25  93 S5        29.90F FOG     WCI  21
GRAND RAPIDS   CLOUDY    26  24  92 S6        29.92S WCI  19
CRANE LAKE     CLOUDY    25  23  93 S5        29.89S WCI  19
ORR            CLOUDY   N/A N/A N/A S5          N/A
COOK           CLOUDY    25  23  93 S5        29.89S WCI  19
WALKER         CLOUDY    26  25  94 S7        29.88S WCI  18
$$
MNZ012-019>021-037-180200-
   Northeast Minnesota

CITY           SKY/WX    TMP DP  RH WIND       PRES   REMARKS
DULUTH         CLOUDY    24  21  88 SW7       29.91S WCI  16
ELY            CLOUDY    23  21  93 SW7       29.88F WCI  15
HIBBING        CLOUDY    24  22  91 SW6       29.90S WCI  17
EVELETH        CLOUDY    24  21  90 SW8       29.91S WCI  15
DULUTH HARBOR  CLOUDY    28  23  80 SW5       29.97S WCI  23
TWO HARBORS    CLOUDY    28  23  80 CALM      29.91S
SILVER BAY     CLOUDY    27  25  93 CALM      29.90S
GRAND MARAIS     N/A     29  24  82 W7        29.92F WCI  22
G MARAIS ARPRT CLOUDY    21  18  86 SW3       29.86F FOG
$$
MNZ029>031-032-039>041-046>048-054>057-064-180200-
   West Central Minnesota

CITY           SKY/WX    TMP DP  RH WIND       PRES   REMARKS
FERGUS FALLS   CLOUDY    28  28 100 S7        29.93F FOG     WCI  21
WHEATON        CLOUDY    30  28  93 SE9       29.92F WCI  22
MORRIS         CLOUDY    28  27  93 SE7       29.92S FOG     WCI  21
ALEXANDRIA     CLOUDY    27  25  92 S5        29.92F FOG     WCI  22
ELBOW LAKE     CLOUDY    27  27  99 E7        29.91F FOG     WCI  20
WADENA         CLOUDY    27  27 100 SW6       29.90F FOG     WCI  20
GLENWOOD       CLOUDY    27  25  93 CALM      29.93F FOG
APPLETON       CLOUDY    30  27  86 SE5       29.93F WCI  25
BENSON         CLOUDY    28  25  86 CALM      29.95F FOG
ORTONVILLE     CLOUDY    30  27  86 SE6       29.91F WCI  24
MADISON        CLOUDY    34  28  80 S7        29.93S WCI  28
WILLMAR        MOCLDY    28  27  93 CALM      29.96S FOG
$$
MNZ033>034-036-042>043-049>051-058-059-180200-
   Central Minnesota

CITY           SKY/WX    TMP DP  RH WIND       PRES   REMARKS
ST CLOUD       CLOUDY    24  20  84 CALM      29.96R
SAUK CENTRE    CLOUDY    25  23  93 SE3       29.94S
PAYNESVILLE    CLOUDY    27  25  91 S3        29.95S
AITKIN         CLOUDY    23  21  93 CALM      29.92S
PINE RIVER     CLOUDY    25  23  93 S5        29.94F WCI  19
BRAINERD       CLOUDY    27  22  81 S3        29.93F
STAPLES        CLOUDY    25  25 100 S5        29.92S FOG     WCI  19
LONG PRAIRIE   CLOUDY    27  25  93 SE3       29.93F FOG
LITTLE FALLS   CLOUDY    25  18  74 CALM      29.95S
LITCHFIELD     CLOUDY    28  25  86 CALM      29.96S
BUFFALO        CLOUDY    25  21  85 CALM      29.98S
MAPLE LAKE     CLOUDY    26  24  89 CALM      29.98R
HUTCHINSON     CLOUDY    28  24  86 CALM      29.98R
$$
MNZ037-044-045-052-053-180200-
   East Central Minnesota

CITY           SKY/WX    TMP DP  RH WIND       PRES   REMARKS
PRINCETON      CLOUDY    25  21  86 CALM      29.96S
MORA           CLOUDY    19  18  93 CALM      29.97S
CAMBRIDGE      CLOUDY    25  18  74 CALM      29.97S
RUSH CITY      PTCLDY    22  20  93 CALM      29.97S FOG
MOOSE LAKE     CLOUDY    27  21  80 S3        29.92F
HINCKLEY       FAIR      21  21 100 CALM      29.96S
CLOQUET        CLOUDY    25  19  80 S3        29.92S
MCGREGOR       CLOUDY    27  23  86 S5        29.93F WCI  21
$$
MNZ071>073-080-081-089-090-097-098-180200-
   Southwest Minnesota

CITY           SKY/WX    TMP DP  RH WIND       PRES   REMARKS
MONTEVIDEO     CLOUDY    28  25  86 S3        29.94F
GRANITE FALLS  CLOUDY    31  26  84 SE6       29.97R WCI  25
CANBY          CLOUDY    32  29  87 E5        29.94S WCI  28
MARSHALL       CLOUDY    29  26  89 S6        29.95S WCI  23
REDWOOD FALLS  CLOUDY    29  24  82 SE5       29.96R WCI  24
OLIVIA         CLOUDY    30  27  86 CALM      29.96R
PIPESTONE      CLOUDY    32  27  80 CALM      29.92S
WINDOM           N/A     27  16  63 CALM      29.95S HAZE
WORTHINGTON    CLOUDY    24  23  96 SW5       29.95F FOG     WCI  18
JACKSON        CLOUDY    27  23  86 CALM      29.95F FOG
SLAYTON        CLOUDY    30  27  90 S5        29.94S WCI  25
$$
MNZ065>067-074>077-082>085-091>093-180200-
   South Central Minnesota

CITY           SKY/WX    TMP DP  RH WIND       PRES   REMARKS
MANKATO        CLOUDY    25  24  96 SE7       29.99R FOG     WCI  17
NEW ULM        CLOUDY    27  21  80 CALM      29.97R
ST JAMES       CLOUDY    25  21  86 SE6       29.98S WCI  18
FAIRMONT       PTCLDY    27  23  85 CALM      29.98R
GLENCOE        CLOUDY    28  25  89 CALM      29.96S
FARIBAULT      CLOUDY    27  25  93 CALM      29.99R FOG
OWATONNA       CLOUDY    28  27  93 CALM      29.97R FOG
WASECA         CLOUDY    28  27  93 CALM      29.99R FOG
ALBERT LEA     CLOUDY    28  27  93 CALM      29.96R FOG
$$
MNZ078>079-086>088-094>096-180200-
   Southeast Minnesota

CITY           SKY/WX    TMP DP  RH WIND       PRES   REMARKS
ROCHESTER      FOG       28  28 100 CALM      29.96R VSB 1
RED WING       CLOUDY    27  25  93 CALM      29.98S FOG
STANTON        CLOUDY    27  25  92 CALM      29.98R FOG
DODGE CENTER   CLOUDY    27  27 100 CALM      29.96R FOG
WINONA         CLOUDY    30  28  93 CALM      30.00R
AUSTIN         CLOUDY    28  27  93 CALM      29.96R FOG
PRESTON        CLOUDY    28  27  96 CALM      29.96R FOG
$$
ABBREVIATIONS USED IN REMARKS
   TC - TEMPERATURES IN CELSIUS
  WCI - WIND CHILL INDEX
   HX - HEAT INDEX
  VSB - VISIBILITY
$$




USA.gov is the U.S. government's official web portal to all federal, state and local government web resources and services.